Weather History for Watertown, NY

Change the Weather History Date:

Sunday, February 17, 2013

  Actual Average Record
Temperature  
Mean Temperature 10 °F 21 °F  
Max Temperature 16 °F 32 °F 54 °F (2006)
Min Temperature 3 °F 11 °F -34 °F (1973)
Degree Days  
Heating Degree Days 55 44  
Month to date heating degree days 800 768  
Since 1 July heating degree days 4445 4979  
Cooling Degree Days 0 0  
Month to date cooling degree days 0 0  
Year to date cooling degree days 0 0  
Moisture  
Dew Point 0 °F    
Average Humidity 69    
Maximum Humidity 87    
Minimum Humidity 51    
Precipitation  
Precipitation 0.00 in 0.08 in 0.71 in (1952)
Month to date precipitation 0.67 1.33  
Year to date precipitation 2.87 3.99  
Sea Level Pressure  
Sea Level Pressure 30.00 in    
Wind  
Wind Speed 8 mph (NNW)    
Max Wind Speed 16 mph    
Max Gust Speed 21 mph    
Visibility 10 miles    
Events      
T = Trace of Precipitation, MM = Missing Value Source: NWS Daily Summary

Daily Weather History Graph

Daily Weather History Graph

Search for Another Location

Airport:

Trip Planner

Search our weather history database for the weather conditions in past years. The results will help you decide how hot, cold, wet, or windy it might be!

Date:

Astronomy

Feb. 17, 2013 Rise Set
Actual Time 6:59 AM EST 5:36 PM EST
Civil Twilight 6:30 AM EST 6:06 PM EST
Nautical Twilight 5:56 AM EST 6:40 PM EST
Astronomical Twilight 5:23 AM EST 7:13 PM EST
Moon 10:34 AM EST (2/17) 12:46 AM EST (2/17)
Length of Visible Light 11h 35m
Length of Day
10h 36m
Waxing Crescent, 49% of the Moon is Illuminated
Feb 17
Waxing Crescent
Feb 17
First Quarter
Feb 25
Full
Mar 4
Last Quarter
Mar 11
New

Hourly Weather History & Observations

Time (EST) Temp. Windchill Dew Point Humidity Pressure Visibility Wind Dir Wind Speed Gust Speed Precip Events Conditions
12:56 AM 10.9 °F 1.4 °F 1.9 °F 67% 29.98 in 10.0 mi NE 5.8 mph - N/A   Clear
1:56 AM 10.0 °F -2.9 °F 1.9 °F 70% 29.97 in 10.0 mi NNE 9.2 mph - N/A   Clear
2:56 AM 8.1 °F -4.3 °F 1.9 °F 76% 29.96 in 10.0 mi ENE 8.1 mph - N/A   Clear
3:56 AM 7.0 °F -3.3 °F 1.0 °F 77% 29.96 in 10.0 mi ENE 5.8 mph - N/A   Clear
4:56 AM 6.1 °F -2.8 °F 1.0 °F 80% 29.98 in 10.0 mi NE 4.6 mph - N/A   Clear
5:56 AM 5.0 °F - 1.0 °F 84% 29.98 in 10.0 mi Calm Calm - N/A   Clear
6:56 AM 3.9 °F -8.2 °F -0.9 °F 80% 29.98 in 10.0 mi NE 6.9 mph - N/A   Clear
7:56 AM 5.0 °F -2.1 °F -0.9 °F 76% 29.99 in 10.0 mi NNE 3.5 mph - N/A   Clear
8:56 AM 6.1 °F -4.3 °F -0.9 °F 73% 29.99 in 10.0 mi North 5.8 mph - N/A   Clear
9:56 AM 9.0 °F -0.9 °F -0.9 °F 64% 29.98 in 10.0 mi NW 5.8 mph - N/A   Clear
10:56 AM 10.9 °F -1.8 °F -0.9 °F 59% 29.97 in 10.0 mi NNW 9.2 mph - N/A   Clear
11:56 AM 12.9 °F -0.2 °F -0.0 °F 56% 29.95 in 10.0 mi WNW 10.4 mph - N/A   Clear
12:56 PM 14.0 °F 2.0 °F -0.0 °F 54% 29.94 in 10.0 mi WNW 9.2 mph - N/A   Clear
1:56 PM 14.0 °F -0.2 °F -0.0 °F 54% 29.95 in 10.0 mi WNW 12.7 mph - N/A   Partly Cloudy
2:56 PM 15.1 °F 1.1 °F -0.0 °F 51% 29.96 in 10.0 mi WNW 12.7 mph 19.6 mph N/A   Partly Cloudy
3:56 PM 15.1 °F 1.1 °F -0.0 °F 51% 29.97 in 10.0 mi WNW 12.7 mph 19.6 mph N/A   Partly Cloudy
4:56 PM 15.1 °F 1.1 °F -0.0 °F 51% 29.98 in 10.0 mi West 12.7 mph - N/A   Scattered Clouds
5:56 PM 14.0 °F 2.0 °F -0.9 °F 52% 30.00 in 10.0 mi WNW 9.2 mph - N/A   Clear
6:56 PM 12.9 °F 0.7 °F -0.9 °F 54% 30.02 in 10.0 mi WNW 9.2 mph - N/A   Clear
7:56 PM 12.0 °F 0.5 °F -0.9 °F 56% 30.05 in 10.0 mi WNW 8.1 mph - N/A   Clear
8:56 PM 10.9 °F -3.4 °F -2.0 °F 56% 30.08 in 10.0 mi WNW 11.5 mph - N/A   Clear
9:56 PM 10.0 °F -0.9 °F -2.0 °F 58% 30.10 in 10.0 mi WNW 6.9 mph - N/A   Clear
10:56 PM 9.0 °F -5.1 °F -4.0 °F 56% 30.12 in 10.0 mi NW 10.4 mph - N/A   Clear
11:56 PM 7.0 °F -4.5 °F -4.0 °F 61% 30.15 in 10.0 mi WNW 6.9 mph - N/A   Clear